loading
DOY 175 | 2024-06-23T10:54:11Z

STARLINK-31962, 59936

Orbit data source: Space-Track

STARLINK-31962, 59936 is a payload satellite owned by SpaceX/Seattle (US) in LEO that was launched on Sat, 01 Jun 2024 UTC via a Falcon 9 launch vehicle from the Air Force Eastern Test Range (AFETR). Payloads include a variety of satellites, spacecraft, and rockets equipped with specific instruments for various scientific and technological missions. These include communications satellites like Starlink; space stations such as the ISS; scientific satellites like the Hubble; Earth observation satellites from companies like Planet Labs, Umbra, and HawkEye 360; GPS; miniature CubeSats for education and research; and military/defense satellites.

Loading next visibility...
Loading greatness...
STARLINK-31962 details
NORAD ID59936
COSPAR ID
2024-106Q
Orbit
LEO
Last TLE update5 hours ago
Origin
Flag of USSpaceX/Seattle (US)
ManufacturerSpaceX/Seattle
BusStarlink V2M
MotorUnknown
Mass750 kg wet, ~700 kg dry
Launch date (UTC)
2024-06-01 (3 weeks ago)
Launch vehicle
Falcon 9
Launch site
Air Force Eastern Test Range (AFETR)
Object type
Payload
Rocket body
Debris
Radar Cross SectionLarge (>1 m²)
Predictive object data (real-time)
Latitude-25.59094°
Longitude-103.43763°
Altitude386.393 km
Speed7.679 km/s
Apparent Right ascension14h 12m 16s
Apparent Declination-46° 49' 23"
Sunlit
Object is in full shadow
Predictive observer data (real-time)
Local Sidereal Time22:02:07
Azimuth239.557° WSW
Elevation-45.233°
Doppler factor1
Orbital elements
Apogee381.474 km
Perigee379.614 km
Semi-major axis6,758.681 km
Eccentricity0.0001376
Inclination42.9996°
RAAN290.3972°
Arg. of periapsis268.1642°
True anomaly342.10085°
Mean anomaly342.1057°
Mean motion3.90616 °/min
BSTAR-0.0203
Period92.16 mins
Definitive object data (Epoch: 2024-06-23T06:00:00.999Z)
Latitude-40.10573°
Longitude172.40923°
Altitude389.749 km
Speed7.677 km/s
True Right ascension11h 37m 15s
True Declination-39° 55' 38"
Sunlit
Object was in daylight at TLE epoch
TLE from 5 hours ago
0 STARLINK-31962
1 59936U 24106Q   24175.25001157 -.01677888  00000-0 -20300-1 0  9998
2 59936  42.9996 290.3972 0001376 268.1642 342.1057 15.63148551  4668
Epoch: 2024-06-23T06:00Z
No data available

STARLINK-31962 Visibility forecast

Observer location: 39.9160978°, -105.1181434, 0m alt.

STARLINK-31962 is not visible in the next 10 days
Span
Click to sort rows by Start time (UTC) header in descending order
Start Az.
Max El. time (UTC)
Max El. Az.
Max El.
End time (UTC)
End Az.